CZ-3B DEB, 42473

Orbit data source: Space-Track

CZ-3B DEB, 42473 is space debris in HEO originally from a launch on Mon, 19 Dec 2011 UTC launched from the Xichang Space Center, China (XSC). Debris objects in space refer to the collection of defunct objects orbiting the Earth. Examples of debris include non-operational satellites, rocket bodies, and fragments generated from explosions, collisions, or faulty payload assembly.

Not visible in the next 10 days
Identifier
42473, 2011-077AN
Orbit
HEO
Country
Flag of CNCN / PRC
Related business
Manufacturer
CALT
Mission
Spacecraft
Bus & Motor
Unknown
Mass
Unknown
Launch date (UTC)
2011-12-19 (14 years ago)
Launch vehicle
Unknown
Launch site
Xichang Space Center, China (XSC)
Object type
Payload
Rocket body
Debris
Shape & HBR
Unknown shape, 2.1 m
Radar Cross Section
Large (>1 m²)

Expand to show TLE details & history
Last TLE update: 1 day ago

TLE from 1 day ago
0 CZ-3B DEB
1 42473U 11077AN  26148.80751773 -.00000054  00000-0  00000-0 0  9995
2 42473  23.2615  67.0624 7173037  97.6110 341.4652  1.69235739 62769
Epoch: 2026-05-28T19:22Z
TLE epoch observation values (Epoch: 2026-05-28T19:22:49.531Z)
Latitude
0.00003°
Longitude
-110.15104°
Altitude
9,670.464 km
Speed
6.023 km/s
True Right ascension
04h 27m 36s
True Declination
0° 00' 00"
Sunlit
Object was in daylight at epoch
Visualization orbit readout
Latitude
Unknown
Longitude
Unknown
Altitude
Unknown
Speed
Unknown
Apparent Right ascension
Unknown
Apparent Declination
Unknown
Sunlit
N/A
Visualization observer readout
Local Sidereal Time
13:56:42
Azimuth
Unknown
Elevation
Unknown
Doppler factor
Unknown
Orbital elements
Apogee altitude
44,708.046 km
Perigee altitude
2,031.485 km
Semi-major axis
29,747.902 km
Eccentricity
0.7173
Inclination
23.2615°
RAAN
67.0624°
Arg. of periapsis
97.611°
True anomaly
262.00908°
Mean anomaly
341.4652°
Eccentric anomaly
309.9665°
Mean motion
0.42302 °/min
Orbital period
851.03 mins
BSTAR
0
Loading maneuver chart data...
Computing Atmospheric mass density...
Loading historical data...
Loading historical data...
Loading historical data...
Loading historical data...
Loading historical data...
Loading historical data...
Loading historical data...

Documentation

Showing up to 5 results
|